TimeCST,TemperatureF,Dew PointF,Humidity,Sea Level PressureIn,VisibilityMPH,Wind Direction,Wind SpeedMPH,Gust SpeedMPH,PrecipitationIn,Events,Conditions,WindDirDegrees,DateUTC
12:53 AM,35.1,15.1,44,30.19,10.0,SSW,3.5,-,N/A,,Clear,210,2012-12-05 06:53:00
1:53 AM,33.1,16.0,50,30.17,10.0,Calm,Calm,-,N/A,,Clear,0,2012-12-05 07:53:00
2:53 AM,26.1,15.1,63,30.18,10.0,Calm,Calm,-,N/A,,Clear,0,2012-12-05 08:53:00
3:53 AM,33.1,17.1,52,30.15,10.0,SSW,5.8,-,N/A,,Clear,210,2012-12-05 09:53:00
4:53 AM,27.0,17.1,66,30.13,10.0,Calm,Calm,-,N/A,,Clear,0,2012-12-05 10:53:00
5:53 AM,27.0,18.0,69,30.17,10.0,Calm,Calm,-,N/A,,Clear,0,2012-12-05 11:53:00
6:53 AM,34.0,17.1,50,30.14,10.0,South,4.6,-,N/A,,Clear,180,2012-12-05 12:53:00
8:53 AM,35.1,19.0,52,30.10,10.0,SSW,5.8,-,N/A,,Clear,210,2012-12-05 14:53:00
9:53 AM,36.0,19.0,50,30.07,10.0,South,6.9,-,N/A,,Clear,180,2012-12-05 15:53:00
10:53 AM,42.1,19.9,41,30.02,10.0,SE,5.8,-,N/A,,Clear,140,2012-12-05 16:53:00
11:53 AM,50.0,21.9,33,29.96,10.0,South,9.2,-,N/A,,Clear,170,2012-12-05 17:53:00
12:53 PM,53.1,23.0,31,29.91,10.0,South,12.7,-,N/A,,Clear,180,2012-12-05 18:53:00
1:53 PM,55.9,24.1,29,29.87,10.0,South,15.0,20.7,N/A,,Clear,180,2012-12-05 19:53:00
2:53 PM,60.1,26.1,27,29.86,10.0,South,16.1,-,N/A,,Clear,190,2012-12-05 20:53:00
3:53 PM,57.9,26.1,30,29.83,10.0,South,8.1,-,N/A,,Clear,180,2012-12-05 21:53:00
4:53 PM,54.0,25.0,33,29.83,10.0,Calm,Calm,-,N/A,,Clear,0,2012-12-05 22:53:00
5:53 PM,55.9,26.1,32,29.81,10.0,SSE,8.1,-,N/A,,Clear,160,2012-12-05 23:53:00
6:53 PM,55.9,26.1,32,29.79,10.0,South,15.0,-,N/A,,Clear,180,2012-12-06 00:53:00
7:53 PM,55.0,27.0,34,29.81,10.0,South,11.5,18.4,N/A,,Clear,180,2012-12-06 01:53:00
8:53 PM,54.0,28.0,37,29.83,10.0,SSW,5.8,-,N/A,,Mostly Cloudy,210,2012-12-06 02:53:00
9:53 PM,52.0,28.0,40,29.83,10.0,SSW,4.6,-,N/A,,Overcast,210,2012-12-06 03:53:00
10:53 PM,51.1,28.0,41,29.80,10.0,SW,3.5,-,N/A,,Scattered Clouds,220,2012-12-06 04:53:00
11:53 PM,43.0,27.0,53,29.81,10.0,Calm,Calm,-,N/A,,Clear,0,2012-12-06 05:53:00